Location: Tehachapi Municipal Airport
(35.1300°N, 118.4400°W)
Time: 03:18:00
(UTC-07:00)

Daily predictions for brighter satellites

Satellite Brightness Start Highest point End
(mag) Time Altitude Azimuth Time Altitude Azimuth Time Altitude Azimuth
ATLAS 3B R/B 3.8 02:13:34 44° N 02:13:34 44° N 02:18:43 10° NNE
CZ-4C R/B 4.1 02:26:34 25° NE 02:26:34 25° NE 02:28:57 10° NE
SL-16 R/B 4.0 02:48:06 28° E 02:49:37 32° ENE 02:54:58 10° N
USA 238 DEB 4.3 02:58:47 51° NNW 02:58:47 51° NNW 03:04:26 10° NNE
USA 238 4.3 02:58:54 52° NNW 02:58:54 52° NNW 03:04:33 10° NNE
CZ-3A R/B 3.7 03:00:05 68° S 03:01:19 75° ESE 03:42:50 10° NE
USA 234 3.5 02:56:24 10° NE 03:01:55 63° NNE 03:01:55 63° NNE
CZ-2D R/B 3.4 03:05:43 10° NNE 03:09:38 36° ENE 03:09:38 36° ENE
NOSS 3-2 (A) 3.8 03:16:04 62° NE 03:16:04 62° NE 03:21:28 10° NNE
Cosmos 1553 Rocket 4.4 03:21:59 56° N 03:21:59 56° N 03:26:47 10° N
SL-16 R/B 3.9 03:23:49 23° NNW 03:23:49 23° NNW 03:26:44 10° N
Cosmos 1745 Rocket 4.0 03:21:25 10° N 03:27:20 77° NNE 03:27:20 77° NNE
NOSS 3-2 (C) 3.5 03:30:25 76° ENE 03:30:25 76° ENE 03:36:27 10° NNE
CENTAUR R/B 4.2 03:38:04 17° SE 03:40:27 22° ESE 03:45:11 10° ENE
Cosmos 494 Rocket 4.1 03:48:33 69° E 03:48:33 69° E 03:53:37 10° NNE
ATLAS CENTAUR R/B 3.8 03:45:54 10° N 03:49:17 22° NE 03:52:27 10° ESE
IRS-1D 4.0 03:46:41 10° N 03:50:53 53° NNW 03:50:53 53° NNW
Resurs 1-4 Rocket 2.2 03:49:51 10° N 03:54:33 65° NNW 03:54:33 65° NNW
ARIANE 5 R/B 3.3 04:02:28 10° N 04:06:34 38° NW 04:06:34 38° NW
ATLAS 5 CENTAUR R/B 2.2 04:09:01 50° SSE 04:09:41 54° ESE 04:14:37 10° NE
Cosmos 883 Rocket 4.4 04:09:18 59° WSW 04:09:54 63° W 04:15:59 10° N
Meteor 2-3 Rocket 3.6 04:04:21 10° NNW 04:10:07 74° W 04:11:13 58° SSW
Okean O Rocket 2.2 04:07:54 10° NNE 04:12:17 55° E 04:13:19 44° SSE
CZ-4C R/B 3.8 04:11:45 19° NW 04:12:22 19° NW 04:16:34 10° N
Cosmos 1892 3.1 04:09:34 10° N 04:12:58 60° NE 04:12:58 60° NE
Cosmos 2315 Rocket 3.9 04:12:21 46° SSW 04:14:20 84° W 04:20:37 10° N
Cosmos 1331 Rocket 3.9 04:09:11 10° NNW 04:14:29 89° ENE 04:17:54 23° SSE
ADEOS II 4.5 04:10:56 10° NE 04:14:39 19° E 04:18:22 10° SE
In-Cosmos 22 Rocket 4.4 04:11:47 10° NNW 04:16:16 48° WNW 04:16:16 48° WNW
MOZ.5/SAFIR/RUBIN 5/SL-8 4.2 04:17:44 10° SSE 04:22:16 59° ENE 04:26:50 10° N
PSLV R/B 3.6 04:23:27 10° NNE 04:27:13 87° ESE 04:27:19 84° SSE
IRS-1C Rocket 4.0 04:26:41 10° NNE 04:31:59 85° WNW 04:34:19 35° SSW
OAO 3 Copernicus 4.2 04:31:21 48° W 04:32:46 90° S 04:37:50 10° E
SL-16 R/B 3.1 04:33:12 35° W 04:33:12 35° W 04:38:40 10° NNW
SeaSat 1 2.3 04:29:57 10° SSE 04:34:51 75° WSW 04:39:48 10° NNW
Cosmos 2251 Rocket 4.4 04:35:06 30° WNW 04:35:21 30° WNW 04:39:58 10° N
Cosmos 1943 3.7 04:35:53 36° W 04:37:00 40° WNW 04:42:19 10° N
SL-27 R/B 3.5 04:40:35 23° SSE 04:42:28 45° ESE 04:45:58 10° NNE
Cosmos 2242 Rocket 4.5 04:43:26 32° WNW 04:43:26 32° WNW 04:47:25 10° NNW
Cosmos 1455 2.5 04:43:38 45° WNW 04:43:38 45° WNW 04:47:20 10° N
CZ-2D R/B 4.2 04:40:42 10° N 04:44:43 35° WNW 04:44:59 35° W
CZ-4B DEB 4.2 04:39:26 10° NNE 04:44:56 87° ESE 04:49:11 17° SSW
Cosmos 1110 Rocket 4.5 04:43:16 10° NW 04:48:01 36° W 04:48:49 34° WSW
CZ-2D R/B 3.4 04:46:32 10° NNW 04:50:26 21° WNW 04:50:57 21° WNW
CZ-4B R/B 3.0 04:46:45 10° N 04:52:03 73° WNW 04:55:45 20° SSW
Cosmos 2369 Rocket 2.2 04:46:50 10° NNW 04:52:16 53° WSW 04:57:42 10° S
CZ-3 R/B 4.0 04:06:20 10° W 04:53:35 57° SSW 05:03:34 10° SE
CZ-4B R/B 2.8 04:58:00 10° N 05:01:33 52° WNW 05:03:05 30° SW
Cosmos 1862 Rocket 4.0 05:01:37 29° SW 05:03:08 39° W 05:07:15 10° N
BREEZE-M DEB (TANK) 2.5 05:03:10 43° SW 05:03:52 83° SE 05:07:46 10° NE
Cosmos 1862 3.5 05:02:42 10° N 05:06:41 73° E 05:10:37 10° SSE
PSLV R/B 3.7 05:02:34 10° NNE 05:06:58 79° ESE 05:11:21 10° S
Pageos (A) 2.9 05:05:04 10° NNW 05:07:09 58° W 05:07:12 57° WSW
Nadezhda 1 Rocket 4.0 05:04:35 10° S 05:10:47 88° W 05:17:08 10° N
Cosmos 1933 3.4 05:10:48 13° SSW 05:14:25 62° W 05:18:30 10° N
Cosmos 389 Rocket 3.4 05:16:15 24° WSW 05:17:22 29° WNW 05:20:28 10° NNW
Feng Yun 1-1 Rocket 4.2 05:15:41 10° NNE 05:21:06 87° ESE 05:26:31 10° SSW
Cosmos 1943 Rocket 2.1 05:20:42 10° NNW 05:26:20 68° WSW 05:31:54 10° S
Okean 1-7 3.1 05:23:30 10° S 05:27:46 83° E 05:32:06 10° N
Cosmos 1825 2.1 05:24:12 10° NNW 05:27:56 61° W 05:31:40 10° S
ATLAS CENTAUR R/B 2.2 05:24:49 10° NW 05:28:19 27° WSW 05:31:35 10° S
Meteor 1-26 Rocket 4.4 05:23:20 10° S 05:29:05 82° E 05:34:59 10° N
CENTAUR R/B 2.8 05:25:17 14° SW 05:30:26 53° NW 05:37:02 10° NNE
Cosmos 1733 Rocket 4.4 05:31:42 10° NW 05:34:48 19° W 05:37:55 10° SW
Cosmos 2154 Rocket 4.2 05:28:38 10° N 05:34:59 81° E 05:41:19 10° S
Cosmos 2074 Rocket 4.3 05:30:08 10° NNW 05:36:00 46° W 05:41:53 10° SSW
ADEOS Rocket 3.6 05:28:44 10° N 05:36:22 68° WNW 05:44:01 10° SSW
Cosmos 2184 Rocket 4.3 05:30:41 10° NNW 05:36:45 48° W 05:42:47 10° SSW
Cosmos 407 Rocket 3.8 05:32:21 10° S 05:37:29 73° ESE 05:42:43 10° NNE
Cosmos 1408 3.0 05:35:09 10° NNW 05:38:41 42° W 05:42:14 10° SSW
Aureole 3 Rocket 4.3 05:30:56 10° SSW 05:39:00 64° W 05:44:47 10° N
Cosmos 1782 Rocket 3.5 05:35:37 10° N 05:39:58 74° W 05:44:15 10° S
NAVSTAR 52 R/B(PAM-D 4.4 05:39:50 12° WNW 05:41:07 24° N 05:42:35 10° NE
COSMOS 2487 3.1 05:37:35 10° S 05:41:08 61° ESE 05:44:42 10° NNE
Atlas Centaur 2 3.5 05:41:34 10° SSW 05:45:47 27° SSE 05:50:55 10° E
Cosmos 2221 Rocket 4.1 05:43:34 10° SSW 05:47:42 38° W 05:51:50 10° N
Okean O Rocket 3.6 05:46:25 10° NW 05:48:08 12° WNW 05:49:52 10° W
Okean-O 3.3 05:44:14 10° N 05:48:20 37° WNW 05:52:23 10° SW
Cosmos 2341 Rocket 4.2 05:45:20 10° N 05:51:39 85° E 05:57:59 10° S
ADEOS II 2.5 05:49:34 10° N 05:54:31 43° WNW 05:59:27 10° SW
ATLAS 5 CENTAUR R/B 3.6 05:51:19 10° W 05:54:45 19° NW 05:58:21 10° N
